カタログに戻る

STARLINK-1452

運用中通信VLEO
NORAD 45669·PAYLOAD·🇺🇸 United States

打ち上げ Jun 4, 2020 から Cape Canaveral Space Force Station

Loading…

次のパス (今後24時間)

TLE

最新Source: CelesTrak SupGP

元期: Sep 14, 2026, 12:54 UTC

1 45669C 20035N   26257.53798611  .00039470  00000+0  30986-3 0  2570
2 45669  53.0186 182.6489 0000435 359.6299   2.8202 15.70839830    17

AllMySatでSTARLINK-1452をリアルタイム追跡

Download on the App Store